EN

Hourly Weather Aliganj

Today, 21 January, Thursday

Time Temperature Precipitation Wind Pressure Humidity
00:00 +12°C° 0 mm 3 mps 745 mmHg 54%
01:00 +11°C° 0 mm 3 mps 745 mmHg 54%
02:00 +11°C° 0 mm 3 mps 744 mmHg 54%
03:00 +10°C° 0 mm 3 mps 744 mmHg 54%
04:00 +10°C° 0 mm 3 mps 744 mmHg 53%
05:00 +10°C° 0 mm 3 mps 743 mmHg 53%
06:00 +11°C° 0 mm 3 mps 744 mmHg 51%
07:00 +11°C° 0 mm 3 mps 744 mmHg 50%
08:00 +12°C° 0 mm 3 mps 745 mmHg 48%
09:00 +15°C° 0 mm 4 mps 745 mmHg 41%
10:00 +19°C° 0 mm 4 mps 746 mmHg 35%
11:00 +22°C° 0 mm 5 mps 746 mmHg 28%
12:00 +23°C° 0 mm 6 mps 745 mmHg 26%
13:00 +24°C° 0 mm 6 mps 744 mmHg 25%
14:00 +24°C° 0 mm 6 mps 744 mmHg 23%
15:00 +23°C° 0 mm 5 mps 744 mmHg 28%
16:00 +21°C° 0 mm 4 mps 744 mmHg 33%
17:00 +19°C° 0 mm 3 mps 744 mmHg 38%
18:00 +18°C° 0 mm 2 mps 744 mmHg 39%
19:00 +16°C° 0 mm 2 mps 745 mmHg 40%
20:00 +15°C° 0 mm 2 mps 745 mmHg 41%
21:00 +15°C° 0 mm 2 mps 745 mmHg 42%
22:00 +14°C° 0 mm 2 mps 745 mmHg 43%
23:00 +14°C° 0 mm 2 mps 745 mmHg 43%

Tomorrow, 22 January, Friday

Time Temperature Precipitation Wind Pressure Humidity
00:00 +13°C° 0 mm 2 mps 745 mmHg 44%
01:00 +13°C° 0 mm 2 mps 745 mmHg 45%
02:00 +12°C° 0 mm 2 mps 745 mmHg 46%
03:00 +12°C° 0 mm 2 mps 745 mmHg 47%
04:00 +11°C° 0 mm 1 mps 745 mmHg 48%
05:00 +10°C° 0 mm 1 mps 745 mmHg 49%
06:00 +12°C° 0 mm 1 mps 746 mmHg 48%
07:00 +12°C° 0 mm 0 mps 746 mmHg 46%
08:00 +13°C° 0 mm 0 mps 747 mmHg 44%
09:00 +16°C° 0 mm 0 mps 747 mmHg 39%
10:00 +18°C° 0 mm 0 mps 747 mmHg 34%
11:00 +21°C° 0 mm 0 mps 747 mmHg 29%
12:00 +22°C° 0 mm 0 mps 746 mmHg 26%
13:00 +23°C° 0 mm 0 mps 746 mmHg 24%
14:00 +26°C° 0 mm 1 mps 745 mmHg 21%
15:00 +22°C° 0 mm 0 mps 744 mmHg 25%
16:00 +20°C° 0 mm 0 mps 744 mmHg 28%
17:00 +18°C° 0 mm 0 mps 744 mmHg 32%
18:00 +17°C° 0 mm 0 mps 744 mmHg 33%
19:00 +18°C° 0 mm 1 mps 745 mmHg 34%
20:00 +16°C° 0 mm 1 mps 745 mmHg 35%
21:00 +15°C° 0 mm 1 mps 745 mmHg 36%
22:00 +15°C° 0 mm 1 mps 745 mmHg 37%
23:00 +14°C° 0 mm 1 mps 745 mmHg 38%

Day after tomorrow, 23 January, Saturday

Time Temperature Precipitation Wind Pressure Humidity
00:00 +14°C° 0 mm 2 mps 745 mmHg 40%
01:00 +14°C° 0 mm 2 mps 745 mmHg 41%
02:00 +13°C° 0 mm 2 mps 744 mmHg 43%
03:00 +13°C° 0 mm 2 mps 744 mmHg 45%
04:00 +12°C° 0 mm 2 mps 744 mmHg 46%
05:00 +12°C° 0 mm 2 mps 744 mmHg 48%
06:00 +13°C° 0 mm 2 mps 744 mmHg 48%
07:00 +13°C° 0 mm 2 mps 745 mmHg 49%
08:00 +14°C° 0 mm 2 mps 745 mmHg 50%
09:00 +17°C° 0 mm 3 mps 745 mmHg 44%
10:00 +20°C° 0 mm 3 mps 745 mmHg 39%
11:00 +22°C° 0 mm 3 mps 746 mmHg 33%
12:00 +24°C° 0 mm 3 mps 745 mmHg 32%
13:00 +25°C° 0 mm 3 mps 744 mmHg 30%
14:00 +26°C° 0 mm 3 mps 743 mmHg 28%
15:00 +25°C° 0 mm 3 mps 743 mmHg 33%
16:00 +22°C° 0 mm 3 mps 743 mmHg 38%
17:00 +21°C° 0 mm 3 mps 742 mmHg 43%
18:00 +19°C° 0 mm 3 mps 743 mmHg 44%
19:00 +18°C° 0 mm 3 mps 743 mmHg 46%
20:00 +17°C° 0 mm 3 mps 743 mmHg 47%
21:00 +17°C° 0 mm 3 mps 743 mmHg 50%
22:00 +16°C° 0 mm 3 mps 743 mmHg 52%
23:00 +14°C° 0 mm 3 mps 743 mmHg 55%

24 January, Sunday

Time Temperature Precipitation Wind Pressure Humidity
00:00 +14°C° 0 mm 3 mps 743 mmHg 57%
01:00 +14°C° 0 mm 3 mps 743 mmHg 59%
02:00 +13°C° 0 mm 3 mps 743 mmHg 62%
03:00 +13°C° 0 mm 3 mps 743 mmHg 63%
04:00 +13°C° 0 mm 3 mps 743 mmHg 64%
05:00 +13°C° 0 mm 3 mps 743 mmHg 66%
06:00 +14°C° 0 mm 2 mps 743 mmHg 66%
07:00 +15°C° 0 mm 2 mps 744 mmHg 66%
08:00 +15°C° 0 mm 2 mps 744 mmHg 66%
09:00 +17°C° 0 mm 2 mps 745 mmHg 59%
10:00 +20°C° 0 mm 2 mps 745 mmHg 52%
11:00 +23°C° 0 mm 2 mps 745 mmHg 44%
12:00 +24°C° 0 mm 2 mps 745 mmHg 41%
13:00 +25°C° 0 mm 2 mps 744 mmHg 38%
14:00 +26°C° 0 mm 2 mps 744 mmHg 36%
15:00 +25°C° 0 mm 1 mps 744 mmHg 40%
16:00 +23°C° 0 mm 1 mps 744 mmHg 44%
17:00 +20°C° 0 mm 0 mps 744 mmHg 48%
18:00 +21°C° 0 mm 1 mps 744 mmHg 51%
19:00 +20°C° 0 mm 1 mps 745 mmHg 54%
20:00 +17°C° 0 mm 2 mps 745 mmHg 57%
21:00 +17°C° 0 mm 2 mps 745 mmHg 60%
22:00 +16°C° 0 mm 3 mps 745 mmHg 64%
23:00 +14°C° 0 mm 3 mps 746 mmHg 67%

25 January, Monday

Time Temperature Precipitation Wind Pressure Humidity
00:00 +13°C° 0 mm 3 mps 745 mmHg 68%
01:00 +13°C° 0 mm 3 mps 745 mmHg 69%
02:00 +12°C° 0 mm 3 mps 745 mmHg 71%
03:00 +13°C° 0 mm 2 mps 745 mmHg 73%
04:00 +13°C° 0 mm 2 mps 744 mmHg 75%
05:00 +12°C° 0 mm 2 mps 744 mmHg 77%
06:00 +13°C° 0 mm 2 mps 745 mmHg 75%
07:00 +14°C° 0 mm 2 mps 746 mmHg 73%
08:00 +15°C° 0 mm 2 mps 746 mmHg 70%
09:00 +17°C° 0 mm 2 mps 747 mmHg 63%
10:00 +20°C° 0 mm 2 mps 747 mmHg 55%
11:00 +23°C° 0 mm 2 mps 747 mmHg 48%
12:00 +24°C° 0 mm 1 mps 746 mmHg 45%
13:00 +25°C° 0 mm 1 mps 746 mmHg 41%
14:00 +26°C° 0 mm 1 mps 745 mmHg 38%
15:00 +25°C° 0 mm 1 mps 745 mmHg 42%
16:00 +23°C° 0 mm 1 mps 745 mmHg 46%
17:00 +21°C° 0 mm 2 mps 744 mmHg 50%
18:00 +20°C° 0 mm 2 mps 745 mmHg 53%
19:00 +18°C° 0 mm 2 mps 745 mmHg 56%
20:00 +17°C° 0 mm 3 mps 745 mmHg 60%
21:00 +16°C° 0 mm 3 mps 745 mmHg 60%
22:00 +14°C° 0 mm 3 mps 745 mmHg 60%
23:00 +14°C° 0 mm 3 mps 745 mmHg 60%

26 January, Tuesday

Time Temperature Precipitation Wind Pressure Humidity
00:00 +13°C° 0 mm 3 mps 745 mmHg 60%
01:00 +13°C° 0 mm 3 mps 745 mmHg 59%
02:00 +12°C° 0 mm 3 mps 745 mmHg 59%
03:00 +13°C° 0 mm 2 mps 745 mmHg 60%
04:00 +12°C° 0 mm 2 mps 745 mmHg 61%
05:00 +12°C° 0 mm 2 mps 745 mmHg 62%
06:00 +13°C° 0 mm 2 mps 745 mmHg 61%
07:00 +14°C° 0 mm 2 mps 746 mmHg 60%
08:00 +14°C° 0 mm 1 mps 746 mmHg 59%
09:00 +18°C° 0 mm 1 mps 747 mmHg 54%
10:00 +20°C° 0 mm 1 mps 747 mmHg 48%
11:00 +23°C° 0 mm 1 mps 747 mmHg 42%
12:00 +23°C° 0 mm 2 mps 746 mmHg 39%
13:00 +24°C° 0 mm 2 mps 746 mmHg 36%
14:00 +25°C° 0 mm 2 mps 745 mmHg 33%
15:00 +24°C° 0 mm 2 mps 745 mmHg 36%
16:00 +21°C° 0 mm 2 mps 744 mmHg 39%
17:00 +20°C° 0 mm 2 mps 744 mmHg 42%
18:00 +18°C° 0 mm 2 mps 744 mmHg 42%
19:00 +17°C° 0 mm 2 mps 745 mmHg 41%
20:00 +16°C° 0 mm 2 mps 745 mmHg 41%
21:00 +15°C° 0 mm 2 mps 745 mmHg 43%
22:00 +14°C° 0 mm 2 mps 745 mmHg 45%
23:00 +14°C° 0 mm 2 mps 745 mmHg 47%
Show more